| time (UTC) | temp F | wind direction | speed MPH | gust MPH | rain 1hr in | rain 24hr in | rain mn in | humidity % | barometer mb |
| 20260506162515 | 56 | 3 | 18.0 | 24.0 | 0.00 | 0.00 | 0.00 | ||
| 20260506161515 | 55 | 1 | 19.0 | 24.0 | 0.00 | 0.00 | 0.00 | ||
| 20260506160515 | 55 | 2 | 18.0 | 22.0 | 0.00 | 0.00 | 0.00 | ||
| 20260506155515 | 55 | 359 | 18.0 | 24.0 | 0.00 | 0.00 | 0.00 | ||
| 20260506154515 | 55 | 2 | 17.0 | 24.0 | 0.00 | 0.00 | 0.00 | ||
| 20260506153515 | 55 | 356 | 19.0 | 24.0 | 0.00 | 0.00 | 0.00 | ||
| 20260506152515 | 56 | 6 | 19.0 | 24.0 | 0.00 | 0.00 | 0.00 | ||
| 20260506151515 | 57 | 1 | 19.0 | 25.0 | 0.00 | 0.00 | 0.00 | ||
| 20260506150515 | 57 | 0 | 19.0 | 24.0 | 0.00 | 0.00 | 0.00 | ||
| 20260506145515 | 57 | 3 | 18.0 | 22.0 | 0.00 | 0.00 | 0.00 | ||
| 20260506144515 | 56 | 1 | 19.0 | 27.0 | 0.00 | 0.00 | 0.00 | ||
| 20260506143515 | 57 | 8 | 18.0 | 23.0 | 0.00 | 0.00 | 0.00 | ||
| 20260506142515 | 57 | 3 | 19.0 | 25.0 | 0.00 | 0.00 | 0.00 | ||
| 20260506141515 | 57 | 6 | 18.0 | 26.0 | 0.00 | 0.00 | 0.00 | ||
| 20260506140515 | 57 | 7 | 19.0 | 24.0 | 0.00 | 0.00 | 0.00 | ||
| 20260506135535 | 58 | 3 | 17.0 | 24.0 | 0.00 | 0.00 | 0.00 | ||
| 20260506134515 | 57 | 7 | 20.0 | 25.0 | 0.00 | 0.00 | 0.00 | ||
| 20260506133515 | 58 | 6 | 20.0 | 26.0 | 0.00 | 0.00 | 0.00 | ||
| 20260506132515 | 58 | 7 | 18.0 | 25.0 | 0.00 | 0.00 | 0.00 | ||
| 20260506131515 | 58 | 16 | 18.0 | 24.0 | 0.00 | 0.00 | 0.00 | ||
| 20260506130515 | 59 | 15 | 19.0 | 25.0 | 0.00 | 0.00 | 0.00 | ||
| 20260506125535 | 59 | 8 | 18.0 | 22.0 | 0.00 | 0.00 | 0.00 | ||
| 20260506124515 | 58 | 13 | 21.0 | 28.0 | 0.00 | 0.00 | 0.00 | ||
| 20260506123535 | 58 | 7 | 19.0 | 27.0 | 0.00 | 0.00 | 0.00 | ||
| 20260506122555 | 59 | 5 | 18.0 | 29.0 | 0.00 | 0.00 | 0.00 | ||
| 20260506121515 | 59 | 18 | 17.0 | 23.0 | 0.00 | 0.00 | 0.00 | ||
| 20260506120515 | 58 | 18 | 18.0 | 23.0 | 0.00 | 0.00 | 0.00 | ||
| 20260506115535 | 59 | 12 | 19.0 | 26.0 | 0.00 | 0.00 | 0.00 | ||
| 20260506114515 | 58 | 25 | 22.0 | 27.0 | 0.00 | 0.00 | 0.00 | ||
| 20260506113515 | 59 | 18 | 20.0 | 25.0 | 0.00 | 0.00 | 0.00 | ||
| 20260506112515 | 59 | 10 | 18.0 | 24.0 | 0.00 | 0.00 | 0.00 | ||
| 20260506111516 | 59 | 10 | 18.0 | 22.0 | 0.00 | 0.00 | 0.00 | ||
| 20260506110515 | 59 | 6 | 16.0 | 22.0 | 0.00 | 0.00 | 0.00 | ||
| 20260506105515 | 59 | 28 | 19.0 | 25.0 | 0.00 | 0.00 | 0.00 | ||
| 20260506104515 | 58 | 37 | 19.0 | 24.0 | 0.00 | 0.00 | 0.00 | ||
| 20260506103515 | 58 | 26 | 18.0 | 23.0 | 0.00 | 0.00 | 0.00 | ||
| 20260506102515 | 59 | 19 | 18.0 | 24.0 | 0.00 | 0.00 | 0.00 | ||
| 20260506101535 | 58 | 27 | 18.0 | 23.0 | 0.00 | 0.00 | 0.00 | ||
| 20260506100515 | 58 | 23 | 18.0 | 22.0 | 0.00 | 0.00 | 0.00 | ||
| 20260506095515 | 58 | 28 | 18.0 | 23.0 | 0.00 | 0.00 | 0.00 | ||
| 20260506094515 | 58 | 15 | 18.0 | 24.0 | 0.00 | 0.00 | 0.00 | ||
| 20260506093515 | 58 | 15 | 19.0 | 23.0 | 0.00 | 0.00 | 0.00 | ||
| 20260506092515 | 58 | 24 | 17.0 | 23.0 | 0.00 | 0.00 | 0.00 | ||
| 20260506091515 | 59 | 18 | 16.0 | 21.0 | 0.00 | 0.00 | 0.00 | ||
| 20260506090515 | 58 | 17 | 19.0 | 24.0 | 0.00 | 0.00 | 0.00 | ||
| 20260506085515 | 59 | 15 | 17.0 | 21.0 | 0.00 | 0.00 | 0.00 | ||
| 20260506084515 | 58 | 16 | 17.0 | 22.0 | 0.00 | 0.00 | 0.00 | ||
| 20260506083515 | 57 | 25 | 18.0 | 25.0 | 0.00 | 0.00 | 0.00 | ||
| 20260506082515 | 58 | 12 | 16.0 | 20.0 | 0.00 | 0.00 | 0.00 | ||
| 20260506081515 | 58 | 9 | 15.0 | 20.0 | 0.00 | 0.00 | 0.00 | ||
| 20260506080515 | 57 | 14 | 17.0 | 20.0 | 0.00 | 0.00 | 0.00 | ||
| 20260506073515 | 55 | 8 | 15.0 | 18.0 | 0.00 | 0.00 | 0.00 | ||
| 20260506072515 | 54 | 14 | 16.0 | 21.0 | 0.00 | 0.00 | 0.00 | ||
| 20260506071515 | 54 | 11 | 15.0 | 18.0 | 0.00 | 0.00 | 0.00 | ||
| 20260506070555 | 53 | 9 | 15.0 | 20.0 | 0.00 | 0.00 | 0.00 | ||
| 20260506062515 | 53 | 13 | 16.0 | 20.0 | 0.00 | 0.00 | 0.00 | ||
| 20260506061515 | 55 | 13 | 17.0 | 23.0 | 0.00 | 0.00 | 0.00 | ||
| 20260506060515 | 62 | 9 | 14.0 | 19.0 | 0.00 | 0.00 | 0.00 | ||
| 20260506050515 | 52 | 352 | 6.0 | 10.0 | 0.00 | 0.00 | 0.00 | ||
| 20260506044515 | 50 | 0 | 8.0 | 13.0 | 0.00 | 0.00 | 0.00 | ||
| 20260506043636 | 49 | 1 | 9.0 | 13.0 | 0.00 | 0.00 | 0.00 | ||
| 20260506042515 | 49 | 4 | 10.0 | 15.0 | 0.00 | 0.00 | 0.00 | ||
| 20260506041515 | 49 | 4 | 14.0 | 18.0 | 0.00 | 0.00 | 0.00 | ||
| 20260506040535 | 49 | 359 | 13.0 | 17.0 | 0.00 | 0.00 | 0.00 | ||
| 20260506035515 | 49 | 353 | 10.0 | 15.0 | 0.00 | 0.00 | 0.00 | ||
| 20260506034515 | 49 | 350 | 11.0 | 16.0 | 0.00 | 0.00 | 0.00 | ||
| 20260506033515 | 49 | 354 | 11.0 | 17.0 | 0.00 | 0.00 | 0.00 | ||
| 20260506032515 | 49 | 0 | 13.0 | 18.0 | 0.00 | 0.00 | 0.00 | ||
| 20260506031515 | 49 | 355 | 10.0 | 15.0 | 0.00 | 0.00 | 0.00 | ||
| 20260506030515 | 49 | 357 | 12.0 | 17.0 | 0.00 | 0.00 | 0.00 | ||
| 20260506025515 | 49 | 1 | 14.0 | 18.0 | 0.00 | 0.00 | 0.00 | ||
| 20260506024515 | 49 | 2 | 16.0 | 20.0 | 0.00 | 0.00 | 0.00 | ||
| 20260506023515 | 49 | 359 | 14.0 | 19.0 | 0.00 | 0.00 | 0.00 | ||
| 20260506022515 | 49 | 359 | 13.0 | 19.0 | 0.00 | 0.00 | 0.00 | ||
| 20260506021515 | 49 | 358 | 12.0 | 16.0 | 0.00 | 0.00 | 0.00 | ||
| 20260506020515 | 49 | 1 | 12.0 | 17.0 | 0.00 | 0.00 | 0.00 | ||
| 20260506015515 | 49 | 359 | 12.0 | 17.0 | 0.00 | 0.00 | 0.00 | ||
| 20260506014515 | 49 | 355 | 11.0 | 16.0 | 0.00 | 0.00 | 0.00 | ||
| 20260506013515 | 49 | 356 | 12.0 | 16.0 | 0.00 | 0.00 | 0.00 | ||
| 20260506012515 | 49 | 355 | 11.0 | 16.0 | 0.00 | 0.00 | 0.00 | ||
| 20260506011515 | 50 | 2 | 13.0 | 18.0 | 0.00 | 0.00 | 0.00 | ||
| 20260506010515 | 50 | 357 | 11.0 | 15.0 | 0.00 | 0.00 | 0.00 | ||
| 20260506005515 | 50 | 352 | 11.0 | 15.0 | 0.00 | 0.00 | 0.00 | ||
| 20260506004535 | 50 | 353 | 10.0 | 16.0 | 0.00 | 0.00 | 0.00 | ||
| 20260506003515 | 50 | 352 | 9.0 | 16.0 | 0.00 | 0.00 | 0.00 | ||
| 20260506002515 | 50 | 0 | 11.0 | 15.0 | 0.00 | 0.00 | 0.00 | ||
| 20260506001515 | 50 | 2 | 12.0 | 17.0 | 0.00 | 0.00 | 0.00 | ||
| 20260506000515 | 50 | 354 | 12.0 | 16.0 | 0.00 | 0.00 | 0.00 | ||
| 20260505235515 | 50 | 360 | 11.0 | 17.0 | 0.00 | 0.00 | 0.00 | ||
| 20260505234535 | 50 | 0 | 11.0 | 16.0 | 0.00 | 0.00 | 0.00 | ||
| 20260505233515 | 50 | 1 | 13.0 | 18.0 | 0.00 | 0.00 | 0.00 | ||
| 20260505232515 | 50 | 1 | 13.0 | 17.0 | 0.00 | 0.00 | 0.00 | ||
| 20260505231515 | 50 | 1 | 13.0 | 17.0 | 0.00 | 0.00 | 0.00 | ||
| 20260505230515 | 50 | 2 | 12.0 | 16.0 | 0.00 | 0.00 | 0.00 | ||
| 20260505225515 | 50 | 3 | 13.0 | 18.0 | 0.00 | 0.00 | 0.00 | ||
| 20260505220515 | 50 | 353 | 4.0 | 8.0 | 0.00 | 0.00 | 0.00 | ||
| 20260505215515 | 50 | 358 | 5.0 | 9.0 | 0.00 | 0.00 | 0.00 | ||
| 20260505214515 | 50 | 356 | 5.0 | 10.0 | 0.00 | 0.00 | 0.00 | ||
| 20260505213515 | 50 | 358 | 1.0 | 8.0 | 0.00 | 0.00 | 0.00 | ||
| 20260505212515 | 50 | 360 | 4.0 | 9.0 | 0.00 | 0.00 | 0.00 | ||
| 20260505211515 | 50 | 358 | 8.0 | 12.0 | 0.00 | 0.00 | 0.00 | ||
| 20260505210515 | 50 | 3 | 9.0 | 12.0 | 0.00 | 0.00 | 0.00 | ||
| 20260505205515 | 50 | 4 | 7.0 | 13.0 | 0.00 | 0.00 | 0.00 | ||
| 20260505204515 | 50 | 6 | 12.0 | 15.0 | 0.00 | 0.00 | 0.00 | ||
| 20260505203515 | 50 | 2 | 11.0 | 14.0 | 0.00 | 0.00 | 0.00 | ||
| 20260505202515 | 50 | 2 | 12.0 | 15.0 | 0.00 | 0.00 | 0.00 | ||
| 20260505201515 | 50 | 2 | 13.0 | 17.0 | 0.00 | 0.00 | 0.00 | ||
| 20260505200515 | 50 | 1 | 13.0 | 18.0 | 0.00 | 0.00 | 0.00 | ||
| 20260505195515 | 50 | 1 | 14.0 | 20.0 | 0.00 | 0.00 | 0.00 | ||
| 20260505194516 | 50 | 1 | 14.0 | 20.0 | 0.00 | 0.00 | 0.00 | ||
| 20260505193535 | 51 | 2 | 14.0 | 18.0 | 0.00 | 0.00 | 0.00 | ||
| 20260505192515 | 51 | 3 | 13.0 | 19.0 | 0.00 | 0.00 | 0.00 | ||
| 20260505191535 | 51 | 359 | 13.0 | 18.0 | 0.00 | 0.00 | 0.00 | ||
| 20260505190515 | 51 | 5 | 16.0 | 20.0 | 0.00 | 0.00 | 0.00 | ||
| 20260505185515 | 51 | 4 | 15.0 | 18.0 | 0.00 | 0.00 | 0.00 | ||
| 20260505184515 | 51 | 6 | 17.0 | 21.0 | 0.00 | 0.00 | 0.00 | ||
| 20260505183515 | 51 | 10 | 15.0 | 19.0 | 0.00 | 0.00 | 0.00 | ||
| 20260505182515 | 52 | 3 | 14.0 | 18.0 | 0.00 | 0.00 | 0.00 | ||
| 20260505181515 | 52 | 11 | 16.0 | 21.0 | 0.00 | 0.00 | 0.00 | ||
| 20260505180515 | 52 | 6 | 14.0 | 21.0 | 0.00 | 0.00 | 0.00 | ||
| 20260505175515 | 53 | 7 | 15.0 | 20.0 | 0.00 | 0.00 | 0.00 | ||
| 20260505174515 | 53 | 9 | 15.0 | 19.0 | 0.00 | 0.00 | 0.00 | ||
| 20260505173515 | 53 | 5 | 15.0 | 20.0 | 0.00 | 0.00 | 0.00 | ||
| 20260505172515 | 53 | 14 | 14.0 | 19.0 | 0.00 | 0.00 | 0.00 | ||
| 20260505171536 | 53 | 5 | 15.0 | 19.0 | 0.00 | 0.00 | 0.00 | ||
| 20260505170515 | 53 | 7 | 15.0 | 21.0 | 0.00 | 0.00 | 0.00 | ||
| 20260505165515 | 54 | 5 | 16.0 | 21.0 | 0.00 | 0.00 | 0.00 | ||
| 20260505164515 | 54 | 9 | 17.0 | 21.0 | 0.00 | 0.00 | 0.00 | ||
| 20260505163515 | 54 | 10 | 15.0 | 20.0 | 0.00 | 0.00 | 0.00 |